Flag for U.S.A. Weather past 2 weeks in Garland, Texas, U.S.A.

Now
63 °F

Sunny.


Feels Like: 63 °F
Forecast: 63 / 85 °F
Wind: 5 mph from West

Location: Mesquite Metro Airport

Current Time: Apr 25, 2015 at 10:07:08 AM

Latest Report: Apr 25, 2015 at 8:50 AM


Visibility: 7 mi

Pressure: 29.73 "Hg

Humidity: 100%

Dew point: 63 °F

Location of GarlandLocation

Historic Weather in Garland — Graph

°F

Garland temperature yesterday

Maximum temperature yesterday: 70 °F (at 11:50 AM)
Minimum temperature yesterday: 63 °F (at 10:15 PM)
Average temperature yesterday: 66 °F

Past Weeks' High & Low Weather Summary

 TemperatureHumidityPressure
High81 °F (Apr 18, 4:50 PM)100% (Apr 12, 9:50 AM)30.22 "Hg (Apr 12, 9:50 AM)
Low48 °F (Apr 21, 4:55 AM)32% (Apr 20, 11:47 AM)29.67 "Hg (Apr 24, 9:15 PM)
Average63 °F82%29.94 "Hg
* Reported Apr 10 8:50 AM — Apr 25 8:50 AM, Garland, Weather by CustomWeather, © 2015

Note: Actual official high and low records may vary slightly from our data, if they occured in-between our weather recording intervals... More about our weather records

Advertising

Garland weather history for previous 24 hours

 ConditionsComfort  
Time TempWeatherWind HumidityBarometerVisibility
8:50 AM
Sat, Apr 25
63 °FSunny.5 mph100%29.73 "Hg7 mi
7:50 AM59 °FSunny.3 mph94%29.72 "Hg7 mi
6:15 AM58 °FClear.5 mph98%29.71 "Hg5 mi
5:55 AM59 °FClear.No wind98%29.70 "Hg5 mi
5:35 AM59 °FClear.6 mph98%29.70 "Hg5 mi
5:15 AM58 °FClear.6 mph98%29.69 "Hg3 mi
4:55 AM59 °FClear.5 mph98%29.70 "Hg5 mi
4:35 AM59 °FClear.7 mph98%29.70 "Hg7 mi
4:15 AM59 °FClear.6 mph98%29.71 "Hg7 mi
3:55 AM60 °FClear.7 mph98%29.70 "Hg7 mi
3:35 AM60 °FClear.7 mph98%29.70 "Hg5 mi
3:15 AM60 °FClear.5 mph99%29.69 "Hg4 mi
2:55 AM60 °FPassing clouds.6 mph99%29.69 "Hg1 mi
2:35 AM61 °FLow clouds.6 mph98%29.69 "Hg0 mi
2:15 AM61 °FLow clouds.No wind98%29.69 "Hg1 mi
1:55 AM61 °FDense fog.3 mph98%29.69 "Hg1 mi
1:35 AM61 °FClear.6 mph98%29.69 "Hg2 mi
1:15 AM61 °FClear.3 mph98%29.69 "Hg7 mi
12:55 AM62 °FClear.5 mph99%29.69 "Hg7 mi
12:35 AM62 °FClear.7 mph98%29.70 "Hg7 mi
12:15 AM62 °FClear.5 mph99%29.71 "Hg10 mi
11:55 PM
Fri, Apr 24
63 °FClear.6 mph98%29.71 "Hg10 mi
11:35 PM63 °FClear.7 mph99%29.71 "Hg10 mi
10:35 PM63 °FClear.3 mph99%29.72 "Hg10 mi
10:15 PM63 °FClear.No wind98%29.70 "Hg10 mi
9:55 PM64 °FClear.5 mph98%29.68 "Hg10 mi
9:35 PM64 °FClear.6 mph99%29.70 "Hg10 mi
9:15 PM64 °FClear.6 mph98%29.67 "Hg10 mi
8:55 PM64 °FSunny.9 mph98%29.68 "Hg10 mi
7:50 PM64 °FThundershowers. Fog.6 mph94%29.69 "Hg5 mi
5:47 PM70 °FFog.5 mph94%29.70 "Hg3 mi
4:47 PM70 °FFog.5 mph94%29.71 "Hg3 mi
3:50 PM66 °FFog.5 mph94%29.74 "Hg2 mi
2:47 PM66 °FFog.7 mph94%29.79 "Hg3 mi
1:47 PM66 °FFog.6 mph94%29.81 "Hg3 mi
12:50 PM68 °FFog.8 mph94%29.82 "Hg3 mi
11:50 AM70 °FFog.9 mph94%29.82 "Hg4 mi
10:50 AM64 °FLight rain. Fog.9 mph100%29.82 "Hg3 mi
Weather by CustomWeather, © 2015

See weather overviewHow to use our weather pages